Regional Weather Roundup
Issued by NWS

Home | Current Version | Previous Version | Graphics & Text | Print | Product List | Glossary Off
Versions: 1 2 3 4 5 6 7 8 9 10 11 12 13 14 15 16 17 18 19 20 21 22 23 24 25 26 27 28 29 30 31 32 33 34 35 36 37 38 39 40 41 42 43 44 45 46 47 48 49 50

000
ASUS43 KIND 231900
RWRIN

WEATHER ROUNDUP FOR INDIANA
NATIONAL WEATHER SERVICE INDIANAPOLIS IN
300 PM EDT SAT SEP 23 2017

NOTE: "FAIR" INDICATES FEW OR NO CLOUDS BELOW 12,000 FEET WITH NO
SIGNIFICANT WEATHER AND/OR OBSTRUCTIONS TO VISIBILITY.

* - STATION DOES NOT REPORT WEATHER SUCH AS PRECIPITATION OR FOG.

+ - STATION NOT QUALITY CONTROLLED BY THE NATIONAL WEATHER SERVICE.
    USE DATA WITH CAUTION...ESPECIALLY DEWPOINT AND RELATIVE
    HUMIDITY OBSERVATIONS.

INZ001>003-010>013-019-020-232000-
NORTHWEST INDIANA

CITY           SKY/WX    TMP DP  RH WIND       PRES   REMARKS
GARY /AIRPORT/ MOSUNNY   91  64  40 E9        30.08F
MICHIGAN CITY+ SUNNY     90  64  43 CALM      30.09F

$$

LMZ046-743>745-232000-
SOUTHERN LAKE MICHIGAN

STATION/POSITION TIME  TEMP    WIND        PRES    WAVE
                       AIR SEA DIR/SP/G            HT
                 (UTC) (F)     (DEG/KT/KT) (MB)    (FT)
BURNS HARBOR     1840   80      60/  8/  9 1019.0F
MICHIGAN CITY    1830   77      30/  5/  5   N/A
5NW MICH CITY    1850   78 75   20/  6/  6   N/A     0

$$

INZ004-005-014>016-021>024-232000-
NORTH CENTRAL INDIANA

CITY           SKY/WX    TMP DP  RH WIND       PRES   REMARKS
ELKHART        SUNNY     90  63  40 CALM      30.11F
GOSHEN         SUNNY     91  63  39 VRB5      30.11F
SOUTH BEND     SUNNY     91  64  40 E6        30.10F

$$

INZ006>009-017-018-025>027-232000-
NORTHEAST INDIANA

CITY           SKY/WX    TMP DP  RH WIND       PRES   REMARKS
FORT WAYNE     MOSUNNY   89  64  43 CALM      30.12F
KENDALLVILLE + SUNNY     89  67  47 CALM      30.13F

$$

INZ028-029-035-036-043>045-051>053-232000-
WEST CENTRAL INDIANA

CITY           SKY/WX    TMP DP  RH WIND       PRES   REMARKS
LAFAYETTE      SUNNY     89  67  47 VRB6      30.07F
TERRE HAUTE    SUNNY     92  61  35 E12       30.06F

$$

INZ030>032-037>040-046>048-054>057-064-065-232000-
CENTRAL INDIANA

CITY           SKY/WX    TMP DP  RH WIND       PRES   REMARKS
ANDERSON       SUNNY     90  63  40 CALM      30.11F
COLUMBUS       SUNNY     90  50  25 CALM      30.08F
GREENWOOD *+   SUNNY     92  66  41 E6        30.10F HX  95
INDIANAPOLIS   MOSUNNY   90  63  40 VRB5      30.09F
-EAGLE CREEK   SUNNY     90  63  40 MISG      30.08F
KOKOMO +       SUNNY     89  67  47 VRB5      30.11F
MT COMFORT *+  SUNNY     90  63  40 NE3       30.11F
SHELBYVILLE    SUNNY     91  59  33 VRB3      30.08F

$$

INZ033-034-041-042-049-050-058-059-232000-
EAST CENTRAL INDIANA

CITY           SKY/WX    TMP DP  RH WIND       PRES   REMARKS
MUNCIE         SUNNY     91  65  41 NW5       30.10F
RICHMOND +     SUNNY     88  61  40 E5        30.13S

$$

INZ060-061-067>069-081>083-085>088-232000-
SOUTHWEST INDIANA

CITY           SKY/WX    TMP DP  RH WIND       PRES   REMARKS
EVANSVILLE     SUNNY     87  61  41 E3        30.05F
HUNTINGBURG +  SUNNY     85  65  51 E6        30.06F

$$

INZ062-063-066-070>080-084-089>092-232000-
SOUTH CENTRAL AND SOUTHEAST INDIANA

CITY           SKY/WX    TMP DP  RH WIND       PRES   REMARKS
BLOOMINGTON    SUNNY     89  59  36 E6        30.08F
MADISON *+     SUNNY     88  59  37 E7        30.10F
SEYMOUR +      SUNNY     91  63  38 SE6       30.07F

$$




USA.gov is the U.S. government's official web portal to all federal, state and local government web resources and services.